ARIANE 5 R/B (52906 NORAD) Tracking and Keplerian Element Data

This shows tracking and keplerian element data for the satellite.

Feedback or suggestion? Click here.




ElementValue
Catalog52906
NameARIANE 5 R/B
Epoch Orbit42
Epoch Day192.87053434
Epoch Year2022
RAAN55.8834
Inclination6.234
Eccentricity0.7277203
Argument of Perigee195.3268
Mean Anonmoly117.2771
Mean Motion2.2871626
Decay Rate2.643E-05
L11 52906U 22067D 22192.87053434 .00002643 00000+0 71044-3 0 9992
L22 52906 6.2340 55.8834 7277203 195.3268 117.2771 2.28716260 420

Live tracking and technical data element details for ARIANE 5 R/B (NORAD 52906). ARIANE 5 R/B can be tracked NOW for your location showing map with azimuth and elevation plus other details from your city location.

Track the satellite on the map from your city or location and see movement details for azimuth, elevation, latitude, longitude, range, height, and movement on the map or in text.







IsCatalogInMostPopularTable: catalog: 52906, numindb: 12
Update: records affected: 1



GetName: 52906 ARIANE 5 R/B

Hit Count: updated at: Thu, 06 Oct 2022 05:27:21 GMT